Location: Oriwa
(40.7500°S, 175.3333°E)
Time: 12:27:23
(UTC+00:00)

Cosmos 192 - Pass Details

Date: 03 February 2023
Orbit: 700 x 712 km, 74.0° (Epoch: 31 March)

Event Time Altitude Azimuth Distance (km) Brightness Sun altitude
Rises 15:09:24 0° 199° (SSW) 3,125 8.1 -22.2°
Reaches altitude 10° 15:11:45 10° 198° (SSW) 2,198 7.2 -21.9°
Maximum altitude 15:16:44 84° 109° (ESE) 719 4.3 -21.3°
Enters shadow 15:20:13 20° 21° (NNE) 1,623 5.9 -20.8°
